Time,TemperatureF,DewpointF,PressureIn,WindDirection,WindDirectionDegrees,WindSpeedMPH,WindSpeedGustMPH,Humidity,HourlyPrecipIn,Conditions,Clouds,dailyrainin,SoftwareType,DateUTC
2013-05-15 00:00:00,58.8,45.0,29.73,SE,144,9.0,9.0,60,0.00,CLR,FEW,0.00,WeatherDisplay:10.37,2013-05-15 04:00:00,
2013-05-15 00:05:00,58.6,45.2,29.73,SE,129,9.0,12.0,61,0.00,CLR,FEW,0.00,WeatherDisplay:10.37,2013-05-15 04:05:00,
2013-05-15 00:10:00,58.8,45.4,29.73,SE,124,8.0,12.0,61,0.00,CLR,FEW,0.00,WeatherDisplay:10.37,2013-05-15 04:10:00,
2013-05-15 00:15:00,58.8,45.4,29.73,SE,132,9.0,12.0,61,0.00,CLR,FEW,0.00,WeatherDisplay:10.37,2013-05-15 04:15:00,
2013-05-15 00:20:00,58.8,45.4,29.76,SE,134,9.0,12.0,61,0.00,CLR,FEW,0.00,WeatherDisplay:10.37,2013-05-15 04:20:00,
2013-05-15 00:30:00,58.8,45.4,29.76,SE,132,8.0,9.0,61,0.00,CLR,FEW,0.00,WeatherDisplay:10.37,2013-05-15 04:30:00,
2013-05-15 00:35:00,59.0,45.1,29.76,SE,145,7.0,9.0,60,0.00,CLR,FEW,0.00,WeatherDisplay:10.37,2013-05-15 04:35:00,
2013-05-15 00:40:00,58.8,45.4,29.76,SE,140,8.0,8.0,61,0.00,CLR,FEW,0.00,WeatherDisplay:10.37,2013-05-15 04:40:00,
2013-05-15 00:50:00,58.8,46.2,29.76,ESE,107,5.0,0.0,63,0.00,CLR,FEW,0.00,WeatherDisplay:10.37,2013-05-15 04:50:00,
2013-05-15 01:00:00,58.8,46.7,29.76,ESE,115,0.0,6.0,64,0.00,CLR,FEW,0.00,WeatherDisplay:10.37,2013-05-15 05:00:00,
2013-05-15 01:05:00,58.6,46.5,29.73,ESE,116,2.0,9.0,64,0.00,CLR,FEW,0.00,WeatherDisplay:10.37,2013-05-15 05:05:00,
2013-05-15 01:10:00,58.5,46.3,29.73,SE,128,3.0,9.0,64,0.00,CLR,FEW,0.00,WeatherDisplay:10.37,2013-05-15 05:10:00,
2013-05-15 01:15:00,58.3,46.6,29.73,SE,128,6.0,8.0,65,0.00,CLR,FEW,0.00,WeatherDisplay:10.37,2013-05-15 05:15:00,
2013-05-15 01:20:00,58.1,46.4,29.73,ESE,123,6.0,8.0,65,0.00,CLR,FEW,0.00,WeatherDisplay:10.37,2013-05-15 05:20:00,
2013-05-15 01:30:00,57.9,46.2,29.73,ESE,104,3.0,6.0,65,0.00,CLR,FEW,0.00,WeatherDisplay:10.37,2013-05-15 05:30:00,
2013-05-15 01:40:00,57.9,46.2,29.73,SE,124,1.0,1.0,65,0.00,CLR,FEW,0.00,WeatherDisplay:10.37,2013-05-15 05:40:00,
2013-05-15 01:45:00,57.7,46.5,29.73,ESE,118,2.0,6.0,66,0.00,CLR,FEW,0.00,WeatherDisplay:10.37,2013-05-15 05:45:00,
2013-05-15 01:50:00,57.9,46.6,29.73,ESE,115,2.0,6.0,66,0.00,CLR,FEW,0.00,WeatherDisplay:10.37,2013-05-15 05:50:00,
2013-05-15 02:00:00,57.9,46.6,29.73,ESE,106,2.0,0.0,66,0.00,CLR,FEW,0.00,WeatherDisplay:10.37,2013-05-15 06:00:00,
2013-05-15 02:05:00,57.9,47.0,29.73,East,100,1.0,5.0,67,0.00,CLR,FEW,0.00,WeatherDisplay:10.37,2013-05-15 06:05:00,
2013-05-15 02:10:00,57.9,47.8,29.73,ESE,103,1.0,5.0,69,0.00,CLR,FEW,0.00,WeatherDisplay:10.37,2013-05-15 06:10:00,
2013-05-15 02:15:00,57.7,48.4,29.73,SE,126,1.0,2.0,71,0.00,CLR,FEW,0.00,WeatherDisplay:10.37,2013-05-15 06:15:00,
2013-05-15 02:20:00,57.6,48.6,29.73,SE,125,1.0,1.0,72,0.00,CLR,FEW,0.00,WeatherDisplay:10.37,2013-05-15 06:20:00,
2013-05-15 02:30:00,57.4,49.2,29.73,SE,126,1.0,1.0,74,0.00,CLR,FEW,0.00,WeatherDisplay:10.37,2013-05-15 06:30:00,
2013-05-15 02:35:00,57.4,48.8,29.73,SE,132,1.0,2.0,73,0.00,CLR,FEW,0.00,WeatherDisplay:10.37,2013-05-15 06:35:00,
2013-05-15 02:40:00,57.4,48.8,29.73,SE,126,1.0,2.0,73,0.00,CLR,FEW,0.00,WeatherDisplay:10.37,2013-05-15 06:40:00,
2013-05-15 02:50:00,57.4,48.4,29.73,ESE,114,2.0,5.0,72,0.00,CLR,FEW,0.00,WeatherDisplay:10.37,2013-05-15 06:50:00,
2013-05-15 03:00:00,57.4,48.4,29.73,ESE,120,2.0,2.0,72,0.00,CLR,FEW,0.00,WeatherDisplay:10.37,2013-05-15 07:00:00,
2013-05-15 03:05:00,57.4,48.4,29.73,ESE,117,1.0,5.0,72,0.00,CLR,FEW,0.00,WeatherDisplay:10.37,2013-05-15 07:05:00,
2013-05-15 03:10:00,57.2,48.6,29.73,ESE,115,1.0,5.0,73,0.00,CLR,FEW,0.00,WeatherDisplay:10.37,2013-05-15 07:10:00,
2013-05-15 03:20:00,57.0,48.8,29.73,ESE,122,1.0,0.0,74,0.00,CLR,FEW,0.00,WeatherDisplay:10.37,2013-05-15 07:20:00,
2013-05-15 09:14:00,74.5,61.5,29.64,SW,232,13.0,15.0,64,0.00,CLR,FEW,0.00,WeatherDisplay:10.37,2013-05-15 13:14:00,
2013-05-15 09:19:00,74.5,61.5,29.64,WSW,237,13.0,16.0,64,0.00,CLR,FEW,0.00,WeatherDisplay:10.37,2013-05-15 13:19:00,
2013-05-15 09:24:00,74.5,61.5,29.64,SW,233,13.0,14.0,64,0.00,CLR,FEW,0.00,WeatherDisplay:10.37,2013-05-15 13:24:00,
2013-05-15 09:29:00,74.5,61.5,29.67,SW,234,14.0,14.0,64,0.00,CLR,FEW,0.00,WeatherDisplay:10.37,2013-05-15 13:29:00,
2013-05-15 09:39:00,74.5,61.5,29.67,WSW,248,13.0,19.0,64,0.00,CLR,FEW,0.00,WeatherDisplay:10.37,2013-05-15 13:39:00,
2013-05-15 09:49:00,71.6,59.6,29.67,SW,230,13.0,15.0,66,0.00,CLR,FEW,0.00,WeatherDisplay:10.37,2013-05-15 13:49:00,
2013-05-15 09:54:00,71.6,59.6,29.67,SW,229,13.0,13.0,66,0.00,CLR,FEW,0.00,WeatherDisplay:10.37,2013-05-15 13:54:00,
2013-05-15 10:00:00,70.0,55.0,29.70,WNW,295,0.0,0.0,59,0.00,CLR,FEW,0.00,WeatherDisplay:10.37,2013-05-15 14:00:00,
2013-05-15 10:04:00,71.1,60.4,29.64,SSW,199,10.0,13.0,69,0.00,CLR,FEW,0.00,WeatherDisplay:10.37,2013-05-15 14:04:00,
2013-05-15 10:05:00,69.6,55.1,29.70,WNW,295,0.0,0.0,60,0.00,CLR,FEW,0.00,WeatherDisplay:10.37,2013-05-15 14:05:00,
2013-05-15 10:09:00,71.1,60.4,29.64,SSW,209,10.0,10.0,69,0.00,CLR,FEW,0.00,WeatherDisplay:10.37,2013-05-15 14:09:00,
2013-05-15 10:10:00,69.6,55.1,29.70,WNW,295,0.0,0.0,60,0.00,CLR,FEW,0.00,WeatherDisplay:10.37,2013-05-15 14:10:00,
2013-05-15 10:14:00,70.7,60.4,29.64,SW,224,9.0,15.0,70,0.00,CLR,FEW,0.00,WeatherDisplay:10.37,2013-05-15 14:14:00,
2013-05-15 10:24:00,70.9,60.6,29.64,SW,222,9.0,12.0,70,0.00,CLR,FEW,0.00,WeatherDisplay:10.37,2013-05-15 14:24:00,
2013-05-15 10:29:00,71.2,61.0,29.64,SW,223,9.0,10.0,70,0.00,CLR,FEW,0.00,WeatherDisplay:10.37,2013-05-15 14:29:00,
2013-05-15 10:34:00,71.8,60.2,29.64,SW,225,8.0,10.0,67,0.00,CLR,FEW,0.00,WeatherDisplay:10.37,2013-05-15 14:34:00,
2013-05-15 10:49:00,72.7,61.5,29.64,South,175,5.0,7.0,68,0.00,CLR,FEW,0.00,WeatherDisplay:10.37,2013-05-15 14:49:00,
2013-05-15 11:04:00,74.5,62.4,29.67,WNW,299,5.0,8.0,66,0.00,CLR,FEW,0.00,WeatherDisplay:10.37,2013-05-15 15:04:00,
2013-05-15 11:09:00,75.0,62.5,29.67,West,275,6.0,8.0,65,0.00,CLR,FEW,0.00,WeatherDisplay:10.37,2013-05-15 15:09:00,
2013-05-15 11:19:00,77.4,62.9,29.67,SW,236,6.0,13.0,61,0.00,CLR,FEW,0.00,WeatherDisplay:10.37,2013-05-15 15:19:00,
2013-05-15 11:29:00,78.8,62.8,29.67,SW,217,9.0,16.0,58,0.00,CLR,FEW,0.00,WeatherDisplay:10.37,2013-05-15 15:29:00,
2013-05-15 11:34:00,79.5,62.9,29.67,SSW,213,10.0,10.0,57,0.00,CLR,FEW,0.00,WeatherDisplay:10.37,2013-05-15 15:34:00,
2013-05-15 11:39:00,79.3,63.8,29.67,SW,217,12.0,15.0,59,0.00,CLR,FEW,0.00,WeatherDisplay:10.37,2013-05-15 15:39:00,
2013-05-15 11:49:00,78.8,62.8,29.67,SW,235,15.0,24.0,58,0.00,CLR,FEW,0.00,WeatherDisplay:10.37,2013-05-15 15:49:00,
2013-05-15 11:59:00,78.6,62.1,29.67,SW,218,13.0,16.0,57,0.00,CLR,FEW,0.00,WeatherDisplay:10.37,2013-05-15 15:59:00,
2013-05-15 12:04:00,78.8,62.3,29.67,WSW,239,10.0,16.0,57,0.00,CLR,FEW,0.00,WeatherDisplay:10.37,2013-05-15 16:04:00,
2013-05-15 12:09:00,78.6,62.1,29.67,SW,231,8.0,16.0,57,0.00,CLR,FEW,0.00,WeatherDisplay:10.37,2013-05-15 16:09:00,
2013-05-15 12:24:00,78.8,61.8,29.67,SW,232,14.0,15.0,56,0.00,CLR,FEW,0.00,WeatherDisplay:10.37,2013-05-15 16:24:00,
2013-05-15 12:29:00,78.3,62.3,29.67,SW,234,16.0,18.0,58,0.00,CLR,FEW,0.00,WeatherDisplay:10.37,2013-05-15 16:29:00,
2013-05-15 12:39:00,78.6,62.1,29.67,WSW,242,16.0,16.0,57,0.00,CLR,FEW,0.00,WeatherDisplay:10.37,2013-05-15 16:39:00,
2013-05-15 12:49:00,80.2,62.6,29.67,WSW,243,15.0,22.0,55,0.00,CLR,FEW,0.00,WeatherDisplay:10.37,2013-05-15 16:49:00,
2013-05-15 12:59:00,80.1,62.9,29.67,WSW,237,16.0,22.0,56,0.00,CLR,FEW,0.00,WeatherDisplay:10.37,2013-05-15 16:59:00,
2013-05-15 13:09:00,80.8,63.1,29.67,SW,231,17.0,17.0,55,0.00,CLR,FEW,0.00,WeatherDisplay:10.37,2013-05-15 17:09:00,
2013-05-15 13:19:00,81.1,64.0,29.67,WSW,255,17.0,20.0,56,0.00,CLR,FEW,0.00,WeatherDisplay:10.37,2013-05-15 17:19:00,
2013-05-15 13:24:00,81.7,65.0,29.67,WSW,244,16.0,16.0,57,0.00,CLR,FEW,0.00,WeatherDisplay:10.37,2013-05-15 17:24:00,
2013-05-15 13:29:00,81.9,63.6,29.67,SW,235,15.0,15.0,54,0.00,CLR,FEW,0.00,WeatherDisplay:10.37,2013-05-15 17:29:00,
2013-05-15 13:39:00,82.4,64.1,29.67,West,266,14.0,14.0,54,0.00,CLR,FEW,0.00,WeatherDisplay:10.37,2013-05-15 17:39:00,
2013-05-15 13:49:00,82.6,64.3,29.70,SW,236,12.0,20.0,54,0.00,CLR,FEW,0.00,WeatherDisplay:10.37,2013-05-15 17:49:00,
2013-05-15 13:59:00,82.4,64.1,29.70,West,261,14.0,21.0,54,0.00,CLR,FEW,0.00,WeatherDisplay:10.37,2013-05-15 17:59:00,
2013-05-15 14:09:00,83.1,65.3,29.70,WSW,244,13.0,14.0,55,0.00,CLR,FEW,0.00,WeatherDisplay:10.37,2013-05-15 18:09:00,
2013-05-15 14:24:00,83.1,65.3,29.70,WSW,245,14.0,23.0,55,0.00,CLR,FEW,0.00,WeatherDisplay:10.37,2013-05-15 18:24:00,
2013-05-15 14:29:00,83.1,65.3,29.70,SW,230,20.0,23.0,55,0.00,CLR,FEW,0.00,WeatherDisplay:10.37,2013-05-15 18:29:00,
2013-05-15 14:34:00,83.1,65.3,29.70,SW,230,17.0,17.0,55,0.00,CLR,FEW,0.00,WeatherDisplay:10.37,2013-05-15 18:34:00,
2013-05-15 14:49:00,83.5,64.0,29.70,WSW,249,13.0,13.0,52,0.00,CLR,FEW,0.00,WeatherDisplay:10.37,2013-05-15 18:49:00,
2013-05-15 14:59:00,83.5,62.9,29.70,West,276,12.0,20.0,50,0.00,CLR,FEW,0.00,WeatherDisplay:10.37,2013-05-15 18:59:00,
2013-05-15 15:09:00,84.0,62.8,29.70,West,259,13.0,18.0,49,0.00,CLR,FEW,0.00,WeatherDisplay:10.37,2013-05-15 19:09:00,
2013-05-15 15:19:00,84.0,62.8,29.70,West,263,15.0,26.0,49,0.00,CLR,FEW,0.00,WeatherDisplay:10.37,2013-05-15 19:19:00,
2013-05-15 15:29:00,84.9,63.6,29.67,WNW,291,13.0,13.0,49,0.00,CLR,FEW,0.00,WeatherDisplay:10.37,2013-05-15 19:29:00,
2013-05-15 15:34:00,84.6,63.3,29.67,WNW,283,14.0,17.0,49,0.00,CLR,FEW,0.00,WeatherDisplay:10.37,2013-05-15 19:34:00,
2013-05-15 15:39:00,84.7,63.5,29.67,WNW,290,13.0,17.0,49,0.00,CLR,FEW,0.00,WeatherDisplay:10.37,2013-05-15 19:39:00,
2013-05-15 15:49:00,84.7,63.5,29.67,NW,324,14.0,16.0,49,0.00,CLR,FEW,0.00,WeatherDisplay:10.37,2013-05-15 19:49:00,
2013-05-15 15:59:00,84.7,63.5,29.67,WNW,290,7.0,7.0,49,0.00,CLR,FEW,0.00,WeatherDisplay:10.37,2013-05-15 19:59:00,
2013-05-15 16:04:00,84.9,63.6,29.67,WNW,287,6.0,6.0,49,0.00,CLR,FEW,0.00,WeatherDisplay:10.37,2013-05-15 20:04:00,
2013-05-15 16:19:00,84.2,63.0,29.67,WNW,285,2.0,2.0,49,0.00,CLR,FEW,0.00,WeatherDisplay:10.37,2013-05-15 20:19:00,
2013-05-15 16:29:00,84.7,63.5,29.67,WNW,285,2.0,2.0,49,0.00,CLR,FEW,0.00,WeatherDisplay:10.37,2013-05-15 20:29:00,
2013-05-15 16:39:00,84.6,63.3,29.67,WNW,285,2.0,2.0,49,0.00,CLR,FEW,0.00,WeatherDisplay:10.37,2013-05-15 20:39:00,
2013-05-15 16:49:00,84.6,63.3,29.67,WNW,285,2.0,2.0,49,0.00,CLR,FEW,0.00,WeatherDisplay:10.37,2013-05-15 20:49:00,
2013-05-15 16:59:00,84.0,63.4,29.67,NW,305,2.0,10.0,50,0.00,CLR,FEW,0.00,WeatherDisplay:10.37,2013-05-15 20:59:00,
2013-05-15 17:04:00,84.0,63.4,29.67,NNW,335,5.0,10.0,50,0.00,CLR,FEW,0.00,WeatherDisplay:10.37,2013-05-15 21:04:00,
2013-05-15 17:09:00,84.0,63.4,29.67,NW,314,7.0,14.0,50,0.00,CLR,FEW,0.00,WeatherDisplay:10.37,2013-05-15 21:09:00,
2013-05-15 17:14:00,83.8,63.2,29.67,NW,318,9.0,13.0,50,0.00,CLR,FEW,0.00,WeatherDisplay:10.37,2013-05-15 21:14:00,
2013-05-15 17:19:00,83.5,62.3,29.67,NW,318,9.0,10.0,49,0.00,CLR,FEW,0.00,WeatherDisplay:10.37,2013-05-15 21:19:00,
2013-05-15 17:24:00,83.5,62.3,29.67,NW,315,9.0,10.0,49,0.00,CLR,FEW,0.00,WeatherDisplay:10.37,2013-05-15 21:24:00,
2013-05-15 17:29:00,83.3,62.1,29.67,NW,325,9.0,14.0,49,0.00,CLR,FEW,0.00,WeatherDisplay:10.37,2013-05-15 21:29:00,
2013-05-15 17:34:00,82.9,61.8,29.67,NW,315,10.0,13.0,49,0.00,CLR,FEW,0.00,WeatherDisplay:10.37,2013-05-15 21:34:00,
2013-05-15 17:44:00,82.8,61.6,29.67,WNW,294,12.0,12.0,49,0.00,CLR,FEW,0.00,WeatherDisplay:10.37,2013-05-15 21:44:00,
2013-05-15 17:49:00,82.6,61.5,29.67,WNW,283,9.0,11.0,49,0.00,CLR,FEW,0.00,WeatherDisplay:10.37,2013-05-15 21:49:00,
2013-05-15 17:59:00,82.6,61.5,29.67,NNW,337,8.0,8.0,49,0.00,CLR,FEW,0.00,WeatherDisplay:10.37,2013-05-15 21:59:00,
2013-05-15 18:09:00,82.0,61.0,29.67,WNW,294,8.0,12.0,49,0.00,CLR,FEW,0.00,WeatherDisplay:10.37,2013-05-15 22:09:00,
2013-05-15 18:19:00,81.9,60.8,29.67,NW,326,9.0,10.0,49,0.00,CLR,FEW,0.00,WeatherDisplay:10.37,2013-05-15 22:19:00,
2013-05-15 18:24:00,81.9,60.8,29.67,WNW,300,8.0,8.0,49,0.00,CLR,FEW,0.00,WeatherDisplay:10.37,2013-05-15 22:24:00,
2013-05-15 18:29:00,81.3,60.3,29.67,NW,307,8.0,12.0,49,0.00,CLR,FEW,0.00,WeatherDisplay:10.37,2013-05-15 22:29:00,
2013-05-15 18:39:00,81.3,60.3,29.67,NW,306,7.0,7.0,49,0.00,CLR,FEW,0.00,WeatherDisplay:10.37,2013-05-15 22:39:00,
2013-05-15 18:59:00,80.2,59.3,29.70,NNW,329,6.0,9.0,49,0.00,CLR,FEW,0.00,WeatherDisplay:10.37,2013-05-15 22:59:00,
2013-05-15 19:04:00,80.2,59.3,29.70,NW,308,5.0,9.0,49,0.00,CLR,FEW,0.00,WeatherDisplay:10.37,2013-05-15 23:04:00,
2013-05-15 19:14:00,79.5,58.7,29.70,WNW,293,3.0,7.0,49,0.00,CLR,FEW,0.00,WeatherDisplay:10.37,2013-05-15 23:14:00,
2013-05-15 19:19:00,79.3,58.5,29.70,WNW,293,3.0,7.0,49,0.00,CLR,FEW,0.00,WeatherDisplay:10.37,2013-05-15 23:19:00,
2013-05-15 19:29:00,78.3,57.5,29.70,NW,322,2.0,5.0,49,0.00,CLR,FEW,0.00,WeatherDisplay:10.37,2013-05-15 23:29:00,
2013-05-15 19:39:00,77.9,57.2,29.70,WNW,283,2.0,2.0,49,0.00,CLR,FEW,0.00,WeatherDisplay:10.37,2013-05-15 23:39:00,
2013-05-15 19:49:00,77.0,56.4,29.70,NW,306,1.0,1.0,49,0.00,CLR,FEW,0.00,WeatherDisplay:10.37,2013-05-15 23:49:00,
2013-05-15 19:59:00,75.9,55.9,29.70,NNW,330,0.0,0.0,50,0.00,CLR,FEW,0.00,WeatherDisplay:10.37,2013-05-15 23:59:00,
2013-05-15 20:04:00,75.7,55.8,29.70,NNW,330,0.0,0.0,50,0.00,CLR,FEW,0.00,WeatherDisplay:10.37,2013-05-16 00:04:00,
2013-05-15 20:09:00,75.7,55.8,29.70,NNW,330,0.0,0.0,50,0.00,CLR,FEW,0.00,WeatherDisplay:10.37,2013-05-16 00:09:00,
2013-05-15 20:19:00,73.6,55.9,29.70,NNW,330,0.0,0.0,54,0.00,CLR,FEW,0.00,WeatherDisplay:10.37,2013-05-16 00:19:00,
2013-05-15 20:29:00,72.7,55.6,29.70,NW,318,0.0,0.0,55,0.00,CLR,FEW,0.00,WeatherDisplay:10.37,2013-05-16 00:29:00,
2013-05-15 20:39:00,72.0,54.9,29.70,WNW,300,0.0,0.0,55,0.00,CLR,FEW,0.00,WeatherDisplay:10.37,2013-05-16 00:39:00,
2013-05-15 20:44:00,71.6,55.1,29.70,WNW,296,0.0,0.0,56,0.00,CLR,FEW,0.00,WeatherDisplay:10.37,2013-05-16 00:44:00,
2013-05-15 20:49:00,70.9,55.4,29.70,WNW,295,0.0,0.0,58,0.00,CLR,FEW,0.00,WeatherDisplay:10.37,2013-05-16 00:49:00,
2013-05-15 20:54:00,70.7,55.2,29.70,WNW,295,0.0,0.0,58,0.00,CLR,FEW,0.00,WeatherDisplay:10.37,2013-05-16 00:54:00,
2013-05-15 22:35:00,70.9,53.9,29.82,NNE,12,2.0,2.0,55,0.00,CLR,FEW,0.00,WeatherDisplay:10.37,2013-05-16 02:35:00,